ジョンソン彗星

C/2015 V2 ( Johnson )

English version
Home page
Updated on July 13, 2019

---------------------------------------------------------------------

・ プロフィール

発見日 2015年11月3日
発見光度 17.1等
発見者 J. A. Johnson (Catalina Sky Survey)

・ 写真集

・ 軌道要素

Epoch 2017 June 16.0 TT = JDT 2457920.5
T 2017 June 12.33935 TT                                 MPCW
q   1.6369842            (2000.0)            P               Q
z  -0.0010462      Peri.  164.89543     -0.49024339     +0.49432048
                   Node    69.84899     -0.85774625     -0.12743958
e   1.0017126      Incl.   49.87642     -0.15470225     -0.85988745
From 5782 observations 2015 Jan. 11-2019 Feb. 3, mean residual 0".5.
     Nongravitational parameters A1 = +2.59, A2 = -0.6945.

・ 星図

・ 光度変化

        m1 = 6.0 + 5 logΔ + 9.0 log r

---------------------------------------------------------------------

軌道要素はM.P.E.C. 2019-J142に掲載されたものです。
星図はステラナビゲータ Ver.8 (アストロアーツ) で作成したものです。
光度グラフはComet for Windowsで作成したものです。

---------------------------------------------------------------------

Copyright(C) Seiichi Yoshida (comet@aerith.net). All rights reserved.